Tracking 20712 objects as of 29-May-2020
HD Live streaming from Space Station
objects crossing your sky now

FENGYUN 1C DEB

Track FENGYUN 1C DEB now!
10-day predictions


NORAD ID: 37040
Int'l Code: 1999-025EDY
Perigee: 769.9 km
Apogee: 889.5 km
Inclination: 99.6 °
Period: 101.3 minutes
Semi major axis: 7200 km
RCS: 0.0091 m2 (small)
Launch date: May 10, 1999
Source: People's Republic of China (PRC)
Launch site: Taiyaun Space Center, China (TSC)

Note: This is SATELLITE DEBRIS
aabbcc
Your satellite tracking list
Your tracking list is empty




NASA's NSSDC Master Catalog

Two Line Element Set (TLE):
1 37040U 99025EDY 20147.87240874 +.00000901 +00000-0 +42579-3 0  9993
2 37040 099.5821 176.6282 0083098 215.0788 144.4896 14.20824477588186
Source of the keplerian elements: AFSPC